Time,TemperatureF,DewpointF,PressureIn,WindDirection,WindDirectionDegrees,WindSpeedMPH,WindSpeedGustMPH,Humidity,HourlyPrecipIn,Conditions,Clouds,dailyrainin,SoftwareType,DateUTC
2013-07-06 00:00:00,75.1,69.9,24.92,SSE,154,9.0,11.0,84,0.00,,---,0.02,VWS V14.00,2013-07-06 04:00:00,
2013-07-06 00:01:00,75.1,70.3,24.92,SSE,157,9.0,11.0,85,0.00,,---,0.02,VWS V14.00,2013-07-06 04:01:00,
2013-07-06 00:02:00,75.1,70.3,24.92,SSE,151,10.0,11.0,85,0.00,,---,0.02,VWS V14.00,2013-07-06 04:02:00,
2013-07-06 00:03:00,75.1,69.9,24.92,SSE,152,9.0,12.0,84,0.00,,---,0.02,VWS V14.00,2013-07-06 04:03:00,
2013-07-06 00:08:00,75.1,70.3,24.92,SE,139,9.0,10.0,85,0.00,,---,0.00,VWS V14.00,2013-07-06 04:08:00,
2013-07-06 00:13:00,74.9,69.7,24.92,SSE,152,9.0,11.0,84,0.00,,---,0.00,VWS V14.00,2013-07-06 04:13:00,
2013-07-06 00:18:00,74.8,69.7,24.92,SSE,147,7.0,12.0,84,0.00,,---,0.00,VWS V14.00,2013-07-06 04:18:00,
2013-07-06 00:23:00,74.8,70.0,24.92,SE,144,10.0,12.0,85,0.00,,---,0.00,VWS V14.00,2013-07-06 04:23:00,
2013-07-06 00:28:00,74.8,69.7,24.92,SSE,158,7.0,12.0,84,0.00,,---,0.00,VWS V14.00,2013-07-06 04:28:00,
2013-07-06 00:33:00,74.9,70.4,24.92,SSE,159,5.0,12.0,86,0.00,,---,0.00,VWS V14.00,2013-07-06 04:33:00,
2013-07-06 00:38:00,74.8,70.0,24.92,South,180,8.0,10.0,85,0.00,,---,0.00,VWS V14.00,2013-07-06 04:38:00,
2013-07-06 00:43:00,74.8,70.0,24.92,SSW,196,7.0,11.0,85,0.00,,---,0.00,VWS V14.00,2013-07-06 04:43:00,
2013-07-06 00:48:00,74.8,70.0,24.92,SSE,155,10.0,11.0,85,0.00,,---,0.00,VWS V14.00,2013-07-06 04:48:00,
2013-07-06 00:53:00,74.7,69.9,26.21,SSE,156,10.0,11.0,85,0.00,,---,0.00,VWS V14.00,2013-07-06 04:53:00,
2013-07-06 00:58:00,74.7,69.9,26.21,SSW,194,9.0,12.0,85,0.00,,---,0.00,VWS V14.00,2013-07-06 04:58:00,
2013-07-06 01:03:00,74.8,70.0,26.21,South,174,7.0,12.0,85,0.00,,---,0.00,VWS V14.00,2013-07-06 05:03:00,
2013-07-06 01:08:00,74.6,69.8,26.21,South,171,10.0,10.0,85,0.00,,---,0.00,VWS V14.00,2013-07-06 05:08:00,
2013-07-06 01:13:00,74.5,69.7,26.21,South,171,7.0,10.0,85,0.00,,---,0.00,VWS V14.00,2013-07-06 05:13:00,
2013-07-06 01:18:00,74.4,69.6,26.21,SSE,168,10.0,10.0,85,0.00,,---,0.00,VWS V14.00,2013-07-06 05:18:00,
2013-07-06 01:23:00,74.3,69.5,26.21,South,178,9.0,12.0,85,0.00,,---,0.00,VWS V14.00,2013-07-06 05:23:00,
2013-07-06 01:29:00,74.3,69.5,26.21,SSE,160,9.0,12.0,85,0.00,,---,0.00,VWS V14.00,2013-07-06 05:29:00,
2013-07-06 01:34:00,74.2,69.4,26.21,SSE,155,7.0,12.0,85,0.00,,---,0.00,VWS V14.00,2013-07-06 05:34:00,
2013-07-06 01:39:00,74.3,69.5,26.21,SE,132,7.0,7.0,85,0.00,,---,0.00,VWS V14.00,2013-07-06 05:39:00,
2013-07-06 01:44:00,74.2,69.4,26.21,SE,146,6.0,10.0,85,0.00,,---,0.00,VWS V14.00,2013-07-06 05:44:00,
2013-07-06 01:49:00,74.1,69.7,26.21,SSE,152,6.0,10.0,86,0.00,,---,0.00,VWS V14.00,2013-07-06 05:49:00,
2013-07-06 01:54:00,74.1,69.7,26.21,SE,144,6.0,10.0,86,0.00,,---,0.00,VWS V14.00,2013-07-06 05:54:00,
2013-07-06 01:59:00,74.0,69.2,26.21,SSE,161,6.0,10.0,85,0.00,,---,0.00,VWS V14.00,2013-07-06 05:59:00,
2013-07-06 02:04:00,73.9,69.1,26.21,SSE,149,6.0,10.0,85,0.00,,---,0.00,VWS V14.00,2013-07-06 06:04:00,
2013-07-06 02:09:00,73.8,69.0,26.21,SE,143,8.0,10.0,85,0.00,,---,0.00,VWS V14.00,2013-07-06 06:09:00,
2013-07-06 02:14:00,73.8,69.3,26.21,SSE,155,6.0,11.0,86,0.00,,---,0.00,VWS V14.00,2013-07-06 06:14:00,
2013-07-06 02:19:00,73.8,69.0,26.21,SSE,150,5.0,11.0,85,0.00,,---,0.00,VWS V14.00,2013-07-06 06:19:00,
2013-07-06 02:24:00,73.8,69.3,26.21,SE,144,4.0,11.0,86,0.00,,---,0.00,VWS V14.00,2013-07-06 06:24:00,
2013-07-06 02:30:00,73.7,69.3,26.21,SSE,147,9.0,11.0,86,0.00,,---,0.00,VWS V14.00,2013-07-06 06:30:00,
2013-07-06 02:35:00,73.6,68.8,26.21,SE,146,12.0,12.0,85,0.00,,---,0.00,VWS V14.00,2013-07-06 06:35:00,
2013-07-06 02:40:00,73.6,68.8,26.21,SE,136,8.0,11.0,85,0.00,,---,0.00,VWS V14.00,2013-07-06 06:40:00,
2013-07-06 02:45:00,73.5,68.7,26.21,SE,130,7.0,11.0,85,0.00,,---,0.00,VWS V14.00,2013-07-06 06:45:00,
2013-07-06 02:50:00,73.4,68.6,26.21,SSE,152,9.0,11.0,85,0.00,,---,0.00,VWS V14.00,2013-07-06 06:50:00,
2013-07-06 02:55:00,73.4,68.6,26.21,SSE,155,5.0,11.0,85,0.00,,---,0.00,VWS V14.00,2013-07-06 06:55:00,
2013-07-06 03:00:00,73.4,68.6,26.21,SE,127,9.0,11.0,85,0.00,,---,0.00,VWS V14.00,2013-07-06 07:00:00,
2013-07-06 03:05:00,73.2,68.4,26.21,SE,134,7.0,11.0,85,0.00,,---,0.00,VWS V14.00,2013-07-06 07:05:00,
2013-07-06 03:10:00,73.1,68.3,26.21,SSE,152,5.0,9.0,85,0.00,,---,0.00,VWS V14.00,2013-07-06 07:10:00,
2013-07-06 03:15:00,73.1,68.3,26.21,SE,131,6.0,11.0,85,0.00,,---,0.00,VWS V14.00,2013-07-06 07:15:00,
2013-07-06 03:20:00,73.1,68.7,26.21,SSE,159,9.0,11.0,86,0.00,,---,0.00,VWS V14.00,2013-07-06 07:20:00,
2013-07-06 03:25:00,72.8,68.0,26.21,South,170,6.0,11.0,85,0.00,,---,0.00,VWS V14.00,2013-07-06 07:25:00,
2013-07-06 03:30:00,72.8,68.4,26.21,South,179,4.0,11.0,86,0.00,,---,0.00,VWS V14.00,2013-07-06 07:30:00,
2013-07-06 03:35:00,72.6,67.8,26.21,South,190,0.0,11.0,85,0.00,,---,0.00,VWS V14.00,2013-07-06 07:35:00,
2013-07-06 03:40:00,72.3,67.5,26.21,South,174,1.0,6.0,85,0.00,,---,0.00,VWS V14.00,2013-07-06 07:40:00,
2013-07-06 03:46:00,72.1,67.7,26.21,South,183,2.0,9.0,86,0.00,,---,0.00,VWS V14.00,2013-07-06 07:46:00,
2013-07-06 03:51:00,72.1,67.7,26.21,SSE,168,3.0,9.0,86,0.00,,---,0.00,VWS V14.00,2013-07-06 07:51:00,
2013-07-06 03:56:00,72.0,67.6,26.21,South,180,5.0,9.0,86,0.00,,---,0.00,VWS V14.00,2013-07-06 07:56:00,
2013-07-06 04:01:00,72.1,67.7,26.21,SE,138,11.0,11.0,86,0.00,,---,0.00,VWS V14.00,2013-07-06 08:01:00,
2013-07-06 04:06:00,71.9,67.5,26.21,SSE,157,6.0,11.0,86,0.00,,---,0.00,VWS V14.00,2013-07-06 08:06:00,
2013-07-06 04:11:00,71.7,67.3,26.21,SSE,168,6.0,9.0,86,0.00,,---,0.00,VWS V14.00,2013-07-06 08:11:00,
2013-07-06 04:16:00,71.5,67.1,26.21,SSE,151,8.0,11.0,86,0.00,,---,0.00,VWS V14.00,2013-07-06 08:16:00,
2013-07-06 04:21:00,71.5,67.4,26.21,SE,144,9.0,12.0,87,0.00,,---,0.00,VWS V14.00,2013-07-06 08:21:00,
2013-07-06 04:26:00,71.4,67.3,26.21,SE,140,5.0,12.0,87,0.00,,---,0.00,VWS V14.00,2013-07-06 08:26:00,
2013-07-06 04:31:00,71.3,67.2,26.21,SE,141,6.0,12.0,87,0.00,,---,0.00,VWS V14.00,2013-07-06 08:31:00,
2013-07-06 04:36:00,71.2,67.1,26.21,SE,143,6.0,12.0,87,0.00,,---,0.00,VWS V14.00,2013-07-06 08:36:00,
2013-07-06 04:41:00,71.2,67.5,26.21,SE,144,6.0,9.0,88,0.00,,---,0.00,VWS V14.00,2013-07-06 08:41:00,
2013-07-06 04:46:00,71.0,67.3,26.21,SSE,152,6.0,10.0,88,0.00,,---,0.00,VWS V14.00,2013-07-06 08:46:00,
2013-07-06 04:51:00,71.0,67.3,26.21,SSE,149,2.0,10.0,88,0.00,,---,0.00,VWS V14.00,2013-07-06 08:51:00,
2013-07-06 04:56:00,70.8,67.1,26.21,SSE,149,3.0,10.0,88,0.00,,---,0.00,VWS V14.00,2013-07-06 08:56:00,
2013-07-06 05:01:00,70.8,67.1,26.21,SSE,149,6.0,10.0,88,0.00,,---,0.00,VWS V14.00,2013-07-06 09:01:00,
2013-07-06 05:07:00,70.8,67.1,26.21,SSE,156,7.0,10.0,88,0.00,,---,0.00,VWS V14.00,2013-07-06 09:07:00,
2013-07-06 05:12:00,70.7,67.0,26.21,SSE,160,6.0,9.0,88,0.00,,---,0.00,VWS V14.00,2013-07-06 09:12:00,
2013-07-06 05:17:00,70.7,67.0,26.21,SSE,156,10.0,10.0,88,0.00,,---,0.00,VWS V14.00,2013-07-06 09:17:00,
2013-07-06 05:22:00,70.6,66.9,26.21,SE,144,10.0,12.0,88,0.00,,---,0.00,VWS V14.00,2013-07-06 09:22:00,
2013-07-06 05:27:00,70.7,67.0,26.21,South,175,8.0,12.0,88,0.00,,---,0.00,VWS V14.00,2013-07-06 09:27:00,
2013-07-06 05:32:00,70.6,66.9,26.21,SSE,149,3.0,12.0,88,0.00,,---,0.00,VWS V14.00,2013-07-06 09:32:00,
2013-07-06 05:37:00,70.6,67.2,26.21,South,169,8.0,8.0,89,0.00,,---,0.00,VWS V14.00,2013-07-06 09:37:00,
2013-07-06 05:42:00,70.6,67.2,26.21,SSW,201,5.0,10.0,89,0.00,,---,0.00,VWS V14.00,2013-07-06 09:42:00,
2013-07-06 05:47:00,70.4,66.7,26.21,South,171,5.0,10.0,88,0.00,,---,0.00,VWS V14.00,2013-07-06 09:47:00,
2013-07-06 05:52:00,70.4,67.0,26.21,SSE,161,6.0,10.0,89,0.00,,---,0.00,VWS V14.00,2013-07-06 09:52:00,
2013-07-06 05:57:00,70.2,66.5,26.21,South,182,4.0,10.0,88,0.00,,---,0.00,VWS V14.00,2013-07-06 09:57:00,
2013-07-06 06:02:00,70.0,66.3,26.21,SSW,196,5.0,10.0,88,0.00,,---,0.00,VWS V14.00,2013-07-06 10:02:00,
2013-07-06 06:07:00,69.9,66.2,26.21,South,175,4.0,5.0,88,0.00,,---,0.00,VWS V14.00,2013-07-06 10:07:00,
2013-07-06 06:12:00,70.1,66.7,25.78,South,173,3.0,5.0,89,0.00,,---,0.00,VWS V14.00,2013-07-06 10:12:00,
2013-07-06 06:17:00,70.1,66.7,25.78,South,169,3.0,7.0,89,0.00,,---,0.00,VWS V14.00,2013-07-06 10:17:00,
2013-07-06 06:22:00,69.9,66.5,25.78,South,170,0.0,7.0,89,0.00,,---,0.00,VWS V14.00,2013-07-06 10:22:00,
2013-07-06 06:27:00,69.7,66.3,25.78,South,169,0.0,7.0,89,0.00,,---,0.00,VWS V14.00,2013-07-06 10:27:00,
2013-07-06 06:33:00,69.6,66.2,25.78,South,170,0.0,7.0,89,0.00,,---,0.00,VWS V14.00,2013-07-06 10:33:00,
2013-07-06 06:38:00,69.5,66.1,25.78,South,170,0.0,3.0,89,0.00,,---,0.00,VWS V14.00,2013-07-06 10:38:00,
2013-07-06 06:43:00,69.6,66.2,25.78,South,169,3.0,4.0,89,0.00,,---,0.00,VWS V14.00,2013-07-06 10:43:00,
2013-07-06 06:48:00,69.7,66.6,30.23,South,170,1.0,6.0,90,0.00,,---,0.00,VWS V14.00,2013-07-06 10:48:00,
2013-07-06 06:53:00,69.8,66.7,30.23,SSE,163,5.0,6.0,90,0.00,,---,0.00,VWS V14.00,2013-07-06 10:53:00,
2013-07-06 06:58:00,69.8,66.7,30.23,SE,136,5.0,6.0,90,0.00,,---,0.00,VWS V14.00,2013-07-06 10:58:00,
2013-07-06 07:03:00,69.8,66.7,30.23,SE,130,5.0,8.0,90,0.00,,---,0.00,VWS V14.00,2013-07-06 11:03:00,
2013-07-06 07:08:00,69.7,66.6,30.23,ESE,116,5.0,6.0,90,0.00,,---,0.00,VWS V14.00,2013-07-06 11:08:00,
2013-07-06 07:13:00,69.7,66.6,30.39,SE,129,6.0,8.0,90,0.00,,---,0.00,VWS V14.00,2013-07-06 11:13:00,
2013-07-06 07:18:00,69.5,66.4,30.39,SE,138,5.0,9.0,90,0.00,,---,0.00,VWS V14.00,2013-07-06 11:18:00,
2013-07-06 07:23:00,69.5,66.1,30.39,SE,140,4.0,9.0,89,0.00,,---,0.00,VWS V14.00,2013-07-06 11:23:00,
2013-07-06 07:28:00,69.5,66.1,30.39,SE,146,5.0,9.0,89,0.00,,---,0.00,VWS V14.00,2013-07-06 11:28:00,
2013-07-06 07:33:00,69.4,66.0,30.39,SE,142,6.0,9.0,89,0.00,,---,0.00,VWS V14.00,2013-07-06 11:33:00,
2013-07-06 07:38:00,69.4,66.3,30.39,SSE,156,6.0,7.0,90,0.00,,---,0.00,VWS V14.00,2013-07-06 11:38:00,
2013-07-06 07:43:00,69.4,66.3,30.39,SSE,152,4.0,8.0,90,0.00,,---,0.00,VWS V14.00,2013-07-06 11:43:00,
2013-07-06 07:48:00,69.4,66.3,30.39,SSE,164,6.0,10.0,90,0.00,,---,0.00,VWS V14.00,2013-07-06 11:48:00,
2013-07-06 07:53:00,69.4,66.3,30.39,SE,146,8.0,10.0,90,0.00,,---,0.00,VWS V14.00,2013-07-06 11:53:00,
2013-07-06 07:59:00,69.6,66.5,30.39,SSE,148,7.0,10.0,90,0.00,,---,0.00,VWS V14.00,2013-07-06 11:59:00,
2013-07-06 08:04:00,69.5,66.4,30.39,SE,142,10.0,10.0,90,0.00,,---,0.00,VWS V14.00,2013-07-06 12:04:00,
2013-07-06 08:09:00,69.4,66.3,30.39,SSE,156,5.0,9.0,90,0.00,,---,0.00,VWS V14.00,2013-07-06 12:09:00,
2013-07-06 08:14:00,69.5,66.4,30.39,SSE,155,5.0,9.0,90,0.00,,---,0.00,VWS V14.00,2013-07-06 12:14:00,
2013-07-06 08:19:00,69.5,66.4,30.39,SSW,198,6.0,9.0,90,0.00,,---,0.00,VWS V14.00,2013-07-06 12:19:00,
2013-07-06 08:24:00,69.4,66.3,30.39,SSE,150,2.0,9.0,90,0.00,,---,0.00,VWS V14.00,2013-07-06 12:24:00,
2013-07-06 08:29:00,69.1,65.7,30.39,SSE,152,2.0,9.0,89,0.00,,---,0.00,VWS V14.00,2013-07-06 12:29:00,
2013-07-06 08:34:00,69.0,65.6,30.39,SSE,152,0.0,9.0,89,0.00,,---,0.00,VWS V14.00,2013-07-06 12:34:00,
2013-07-06 08:39:00,69.2,66.2,30.39,SSE,152,2.0,4.0,90,0.00,,---,0.00,VWS V14.00,2013-07-06 12:39:00,
2013-07-06 08:44:00,69.1,65.7,30.39,SSE,152,1.0,5.0,89,0.00,,---,0.00,VWS V14.00,2013-07-06 12:44:00,
2013-07-06 08:49:00,69.3,65.9,30.39,SSE,152,0.0,5.0,89,0.00,,---,0.00,VWS V14.00,2013-07-06 12:49:00,
2013-07-06 08:54:00,69.3,65.9,30.39,SSE,152,0.0,5.0,89,0.00,,---,0.00,VWS V14.00,2013-07-06 12:54:00,
2013-07-06 08:59:00,69.2,65.8,30.39,SSE,152,0.0,5.0,89,0.00,,---,0.00,VWS V14.00,2013-07-06 12:59:00,
2013-07-06 09:05:00,69.2,65.8,30.39,SSE,152,0.0,5.0,89,0.00,,---,0.00,VWS V14.00,2013-07-06 13:05:00,
2013-07-06 09:10:00,69.1,65.7,30.39,SSE,152,0.0,1.0,89,0.00,,---,0.00,VWS V14.00,2013-07-06 13:10:00,
2013-07-06 09:15:00,69.2,65.8,30.39,SSE,152,0.0,1.0,89,0.00,,---,0.00,VWS V14.00,2013-07-06 13:15:00,
2013-07-06 09:20:00,69.1,65.7,30.39,SSE,152,0.0,3.0,89,0.00,,---,0.00,VWS V14.00,2013-07-06 13:20:00,
2013-07-06 09:25:00,69.1,65.7,30.39,SSE,152,0.0,3.0,89,0.00,,---,0.00,VWS V14.00,2013-07-06 13:25:00,
2013-07-06 09:30:00,69.1,65.7,30.39,SSE,152,0.0,3.0,89,0.00,,---,0.00,VWS V14.00,2013-07-06 13:30:00,
2013-07-06 09:35:00,69.2,65.8,30.39,SSE,152,0.0,3.0,89,0.00,,---,0.00,VWS V14.00,2013-07-06 13:35:00,
2013-07-06 09:40:00,69.2,65.8,30.39,SSE,152,0.0,1.0,89,0.00,,---,0.00,VWS V14.00,2013-07-06 13:40:00,
2013-07-06 09:45:00,69.3,65.9,30.39,SSE,152,0.0,1.0,89,0.00,,---,0.00,VWS V14.00,2013-07-06 13:45:00,
2013-07-06 09:50:00,69.3,65.9,30.39,SSE,152,1.0,4.0,89,0.00,,---,0.00,VWS V14.00,2013-07-06 13:50:00,
2013-07-06 09:55:00,69.3,65.9,30.39,WSW,246,0.0,4.0,89,0.00,,---,0.00,VWS V14.00,2013-07-06 13:55:00,
2013-07-06 10:00:00,69.2,65.8,30.39,WSW,248,0.0,4.0,89,0.00,,---,0.00,VWS V14.00,2013-07-06 14:00:00,
2013-07-06 10:05:00,69.2,65.8,30.39,WSW,248,3.0,4.0,89,0.00,,---,0.00,VWS V14.00,2013-07-06 14:05:00,
2013-07-06 10:10:00,69.2,65.8,30.39,WSW,248,3.0,4.0,89,0.00,,---,0.00,VWS V14.00,2013-07-06 14:10:00,
2013-07-06 10:15:00,69.0,65.6,30.39,WSW,248,2.0,4.0,89,0.00,,---,0.00,VWS V14.00,2013-07-06 14:15:00,
2013-07-06 10:20:00,69.1,65.7,30.39,WSW,248,0.0,4.0,89,0.00,,---,0.00,VWS V14.00,2013-07-06 14:20:00,
2013-07-06 10:26:00,69.1,65.7,30.39,WSW,248,0.0,4.0,89,0.00,,---,0.00,VWS V14.00,2013-07-06 14:26:00,
2013-07-06 10:31:00,69.1,65.7,30.39,WSW,248,0.0,4.0,89,0.00,,---,0.00,VWS V14.00,2013-07-06 14:31:00,
2013-07-06 10:36:00,69.3,65.9,30.39,WSW,248,0.0,4.0,89,0.00,,---,0.00,VWS V14.00,2013-07-06 14:36:00,
2013-07-06 10:41:00,69.4,66.0,30.39,WSW,248,0.0,1.0,89,0.00,,---,0.00,VWS V14.00,2013-07-06 14:41:00,
2013-07-06 10:46:00,69.4,66.0,30.39,WSW,245,2.0,4.0,89,0.00,,---,0.00,VWS V14.00,2013-07-06 14:46:00,
2013-07-06 10:51:00,69.5,66.1,30.39,WSW,246,2.0,4.0,89,0.00,,---,0.00,VWS V14.00,2013-07-06 14:51:00,
2013-07-06 10:56:00,69.5,66.1,30.39,WSW,245,0.0,4.0,89,0.00,,---,0.00,VWS V14.00,2013-07-06 14:56:00,
2013-07-06 11:01:00,69.5,66.1,30.39,WSW,245,0.0,4.0,89,0.00,,---,0.00,VWS V14.00,2013-07-06 15:01:00,
2013-07-06 11:06:00,69.6,65.9,30.39,WSW,245,0.0,4.0,88,0.00,,---,0.00,VWS V14.00,2013-07-06 15:06:00,
2013-07-06 11:11:00,69.7,66.0,30.39,WSW,245,0.0,0.0,88,0.00,,---,0.00,VWS V14.00,2013-07-06 15:11:00,
2013-07-06 11:13:00,69.7,66.0,30.39,WSW,245,0.0,1.0,88,0.00,,---,0.00,VWS V14.00,2013-07-06 15:13:00,
2013-07-06 11:18:00,69.8,65.8,30.39,WSW,245,0.0,1.0,87,0.00,,---,0.00,VWS V14.00,2013-07-06 15:18:00,
2013-07-06 11:23:00,69.9,65.9,30.39,WSW,245,0.0,2.0,87,0.00,,---,0.00,VWS V14.00,2013-07-06 15:23:00,
2013-07-06 11:28:00,69.9,65.9,30.39,WSW,245,1.0,2.0,87,0.00,,---,0.00,VWS V14.00,2013-07-06 15:28:00,
2013-07-06 11:33:00,69.9,66.2,30.39,WSW,242,0.0,4.0,88,0.00,,---,0.00,VWS V14.00,2013-07-06 15:33:00,
2013-07-06 11:38:00,69.9,66.2,30.39,SSW,196,4.0,4.0,88,0.00,,---,0.00,VWS V14.00,2013-07-06 15:38:00,
2013-07-06 11:43:00,70.0,66.3,30.39,South,178,3.0,6.0,88,0.00,,---,0.00,VWS V14.00,2013-07-06 15:43:00,
2013-07-06 11:48:00,69.8,66.1,30.39,SW,230,6.0,10.0,88,0.00,,---,0.00,VWS V14.00,2013-07-06 15:48:00,
2013-07-06 11:53:00,69.2,65.2,30.39,SW,226,2.0,14.0,87,0.00,,---,0.00,VWS V14.00,2013-07-06 15:53:00,
2013-07-06 11:59:00,68.8,64.4,30.39,SSW,199,5.0,14.0,86,0.00,,---,0.00,VWS V14.00,2013-07-06 15:59:00,
2013-07-06 12:04:00,68.7,64.7,30.39,SSW,199,1.0,14.0,87,0.00,,---,0.00,VWS V14.00,2013-07-06 16:04:00,
2013-07-06 12:09:00,68.6,64.6,30.39,South,185,4.0,6.0,87,0.00,,---,0.00,VWS V14.00,2013-07-06 16:09:00,
2013-07-06 12:14:00,68.7,64.7,30.39,South,190,0.0,6.0,87,0.00,,---,0.00,VWS V14.00,2013-07-06 16:14:00,
2013-07-06 12:19:00,69.0,65.0,30.39,West,274,0.0,6.0,87,0.00,,---,0.00,VWS V14.00,2013-07-06 16:19:00,
2013-07-06 12:25:00,69.3,65.3,32.03,SSW,203,2.0,6.0,87,0.00,,---,0.00,VWS V14.00,2013-07-06 16:25:00,
2013-07-06 12:30:00,69.5,65.5,32.03,West,269,0.0,6.0,87,0.00,,---,0.00,VWS V14.00,2013-07-06 16:30:00,
2013-07-06 12:37:00,69.9,65.9,32.03,SSW,196,3.0,6.0,87,0.00,,---,0.00,VWS V14.00,2013-07-06 16:37:00,
2013-07-06 12:42:00,69.8,65.4,32.03,SSE,158,0.0,4.0,86,0.00,,---,0.00,VWS V14.00,2013-07-06 16:42:00,
2013-07-06 12:48:00,69.9,65.5,32.03,SSE,156,2.0,4.0,86,0.00,,---,0.00,VWS V14.00,2013-07-06 16:48:00,
2013-07-06 12:53:00,70.0,65.6,32.03,SE,130,2.0,4.0,86,0.00,,---,0.00,VWS V14.00,2013-07-06 16:53:00,
2013-07-06 12:58:00,70.0,65.6,32.03,ESE,117,0.0,4.0,86,0.00,,---,0.00,VWS V14.00,2013-07-06 16:58:00,
2013-07-06 13:03:00,70.1,65.4,32.03,ESE,117,4.0,4.0,85,0.00,,---,0.00,VWS V14.00,2013-07-06 17:03:00,
2013-07-06 13:09:00,70.2,65.5,32.03,ESE,117,0.0,2.0,85,0.00,,---,0.00,VWS V14.00,2013-07-06 17:09:00,
2013-07-06 13:14:00,70.5,65.8,25.66,ESE,117,0.0,2.0,85,0.00,,---,0.00,VWS V14.00,2013-07-06 17:14:00,
2013-07-06 13:19:00,70.6,65.9,25.66,SE,128,3.0,4.0,85,0.00,,---,0.00,VWS V14.00,2013-07-06 17:19:00,
2013-07-06 13:25:00,70.9,66.5,25.66,SSW,194,2.0,9.0,86,0.00,,---,0.00,VWS V14.00,2013-07-06 17:25:00,
2013-07-06 13:30:00,71.1,66.4,25.66,SSW,213,0.0,9.0,85,0.00,,---,0.00,VWS V14.00,2013-07-06 17:30:00,
2013-07-06 13:35:00,71.3,66.6,25.66,South,172,3.0,9.0,85,0.00,,---,0.00,VWS V14.00,2013-07-06 17:35:00,
2013-07-06 13:40:00,71.5,66.8,25.66,South,186,0.0,4.0,85,0.00,,---,0.00,VWS V14.00,2013-07-06 17:40:00,
2013-07-06 13:45:00,71.7,66.6,25.66,South,187,3.0,4.0,84,0.00,,---,0.00,VWS V14.00,2013-07-06 17:45:00,
2013-07-06 13:51:00,71.8,66.4,25.66,SW,215,3.0,6.0,83,0.00,,---,0.00,VWS V14.00,2013-07-06 17:51:00,
2013-07-06 13:56:00,72.0,66.2,25.66,West,277,0.0,6.0,82,0.00,,---,0.00,VWS V14.00,2013-07-06 17:56:00,
2013-07-06 14:03:00,72.1,66.3,25.66,West,277,0.0,6.0,82,0.00,,---,0.00,VWS V14.00,2013-07-06 18:03:00,
2013-07-06 14:08:00,72.4,66.6,25.66,West,278,0.0,0.0,82,0.00,,---,0.00,VWS V14.00,2013-07-06 18:08:00,
2013-07-06 14:15:00,72.8,66.6,25.66,West,278,0.0,1.0,81,0.00,,---,0.00,VWS V14.00,2013-07-06 18:15:00,
2013-07-06 14:20:00,72.6,66.1,25.66,South,173,0.0,4.0,80,0.00,,---,0.00,VWS V14.00,2013-07-06 18:20:00,
2013-07-06 14:25:00,72.6,66.4,25.66,South,174,0.0,4.0,81,0.00,,---,0.00,VWS V14.00,2013-07-06 18:25:00,
2013-07-06 14:30:00,72.5,66.0,25.66,SSE,153,2.0,7.0,80,0.00,,---,0.00,VWS V14.00,2013-07-06 18:30:00,
2013-07-06 14:36:00,72.4,66.2,25.66,SSE,155,4.0,7.0,81,0.00,,---,0.00,VWS V14.00,2013-07-06 18:36:00,
2013-07-06 14:42:00,72.5,65.6,25.66,SSE,153,3.0,6.0,79,0.00,,---,0.00,VWS V14.00,2013-07-06 18:42:00,
2013-07-06 14:47:00,72.6,65.7,22.24,SSE,155,6.0,7.0,79,0.00,,---,0.00,VWS V14.00,2013-07-06 18:47:00,
2013-07-06 14:53:00,72.6,65.7,22.24,SSE,159,4.0,9.0,79,0.00,,---,0.00,VWS V14.00,2013-07-06 18:53:00,
2013-07-06 14:58:00,72.7,65.8,22.24,South,177,4.0,9.0,79,0.00,,---,0.00,VWS V14.00,2013-07-06 18:58:00,
2013-07-06 15:03:00,72.7,65.8,22.24,South,171,2.0,9.0,79,0.00,,---,0.00,VWS V14.00,2013-07-06 19:03:00,
2013-07-06 15:08:00,72.7,65.8,22.24,South,171,2.0,4.0,79,0.00,,---,0.00,VWS V14.00,2013-07-06 19:08:00,
2013-07-06 15:14:00,72.8,65.6,22.24,South,171,3.0,4.0,78,0.00,,---,0.00,VWS V14.00,2013-07-06 19:14:00,
2013-07-06 15:19:00,72.8,65.9,22.24,South,171,4.0,4.0,79,0.00,,---,0.00,VWS V14.00,2013-07-06 19:19:00,
2013-07-06 15:24:00,72.9,66.0,22.24,South,169,3.0,6.0,79,0.00,,---,0.00,VWS V14.00,2013-07-06 19:24:00,
2013-07-06 15:30:00,73.0,66.5,22.24,South,173,1.0,6.0,80,0.00,,---,0.00,VWS V14.00,2013-07-06 19:30:00,
2013-07-06 15:35:00,73.0,66.5,22.24,South,173,0.0,6.0,80,0.00,,---,0.00,VWS V14.00,2013-07-06 19:35:00,
2013-07-06 15:40:00,73.1,66.6,22.24,South,173,0.0,1.0,80,0.00,,---,0.00,VWS V14.00,2013-07-06 19:40:00,
2013-07-06 15:45:00,73.1,66.6,22.24,South,173,0.0,1.0,80,0.00,,---,0.00,VWS V14.00,2013-07-06 19:45:00,
2013-07-06 15:52:00,73.1,66.6,22.24,South,173,0.0,1.0,80,0.00,,---,0.00,VWS V14.00,2013-07-06 19:52:00,
2013-07-06 15:58:00,73.1,66.6,22.24,South,173,0.0,2.0,80,0.00,,---,0.00,VWS V14.00,2013-07-06 19:58:00,
2013-07-06 16:03:00,73.1,66.6,22.24,South,173,2.0,4.0,80,0.00,,---,0.00,VWS V14.00,2013-07-06 20:03:00,
2013-07-06 16:09:00,72.9,66.4,22.24,South,173,3.0,4.0,80,0.00,,---,0.00,VWS V14.00,2013-07-06 20:09:00,
2013-07-06 16:14:00,72.9,66.4,22.24,South,173,0.0,4.0,80,0.00,,---,0.00,VWS V14.00,2013-07-06 20:14:00,
2013-07-06 16:19:00,72.8,66.3,22.24,South,173,0.0,4.0,80,0.00,,---,0.00,VWS V14.00,2013-07-06 20:19:00,
2013-07-06 16:25:00,72.8,66.3,22.24,South,173,3.0,4.0,80,0.00,,---,0.00,VWS V14.00,2013-07-06 20:25:00,
2013-07-06 16:31:00,72.7,66.5,22.24,South,173,0.0,4.0,81,0.00,,---,0.00,VWS V14.00,2013-07-06 20:31:00,
2013-07-06 16:36:00,72.8,66.6,22.24,South,173,0.0,4.0,81,0.00,,---,0.00,VWS V14.00,2013-07-06 20:36:00,
2013-07-06 16:41:00,72.9,66.7,22.24,South,173,0.0,0.0,81,0.00,,---,0.00,VWS V14.00,2013-07-06 20:41:00,
2013-07-06 16:48:00,73.1,66.6,22.24,South,173,0.0,0.0,80,0.00,,---,0.00,VWS V14.00,2013-07-06 20:48:00,
2013-07-06 16:53:00,73.3,66.8,22.24,South,173,2.0,3.0,80,0.00,,---,0.00,VWS V14.00,2013-07-06 20:53:00,
2013-07-06 16:58:00,73.4,66.9,22.24,South,173,4.0,4.0,80,0.00,,---,0.00,VWS V14.00,2013-07-06 20:58:00,
2013-07-06 17:04:00,73.6,66.7,22.24,South,173,0.0,4.0,79,0.00,,---,0.00,VWS V14.00,2013-07-06 21:04:00,
2013-07-06 17:09:00,73.7,67.2,22.24,South,173,2.0,3.0,80,0.00,,---,0.00,VWS V14.00,2013-07-06 21:09:00,
2013-07-06 17:14:00,73.6,66.3,22.24,South,173,3.0,3.0,78,0.00,,---,0.00,VWS V14.00,2013-07-06 21:14:00,
2013-07-06 17:20:00,73.7,66.4,22.24,SSE,159,4.0,5.0,78,0.00,,---,0.00,VWS V14.00,2013-07-06 21:20:00,
2013-07-06 17:25:00,73.8,66.2,22.24,SSE,158,6.0,9.0,77,0.00,,---,0.00,VWS V14.00,2013-07-06 21:25:00,
2013-07-06 17:30:00,73.8,65.8,22.24,SSE,157,6.0,9.0,76,0.00,,---,0.00,VWS V14.00,2013-07-06 21:30:00,
2013-07-06 17:36:00,73.9,66.2,22.24,SSE,163,4.0,9.0,77,0.00,,---,0.00,VWS V14.00,2013-07-06 21:36:00,
2013-07-06 17:41:00,74.0,66.3,22.24,SSE,165,5.0,7.0,77,0.00,,---,0.00,VWS V14.00,2013-07-06 21:41:00,
2013-07-06 17:46:00,73.9,66.2,22.24,SSE,167,0.0,7.0,77,0.00,,---,0.00,VWS V14.00,2013-07-06 21:46:00,
2013-07-06 17:52:00,73.9,66.6,22.24,SSE,167,3.0,7.0,78,0.00,,---,0.00,VWS V14.00,2013-07-06 21:52:00,
2013-07-06 17:58:00,74.0,66.7,22.24,SSE,167,3.0,7.0,78,0.00,,---,0.00,VWS V14.00,2013-07-06 21:58:00,
2013-07-06 18:03:00,74.1,66.8,22.24,SSE,163,3.0,7.0,78,0.00,,---,0.00,VWS V14.00,2013-07-06 22:03:00,
2013-07-06 18:08:00,74.2,66.9,22.24,SSE,160,5.0,5.0,78,0.00,,---,0.00,VWS V14.00,2013-07-06 22:08:00,
2013-07-06 18:13:00,74.2,66.5,22.24,SSE,148,4.0,7.0,77,0.00,,---,0.00,VWS V14.00,2013-07-06 22:13:00,
2013-07-06 18:19:00,74.2,66.5,22.24,SE,140,4.0,7.0,77,0.00,,---,0.00,VWS V14.00,2013-07-06 22:19:00,
2013-07-06 18:24:00,74.2,66.5,22.24,SE,126,4.0,7.0,77,0.00,,---,0.00,VWS V14.00,2013-07-06 22:24:00,
2013-07-06 18:29:00,74.3,67.4,22.24,SSE,155,6.0,7.0,79,0.00,,---,0.00,VWS V14.00,2013-07-06 22:29:00,
2013-07-06 18:34:00,74.2,67.3,22.24,SSE,155,5.0,7.0,79,0.00,,---,0.00,VWS V14.00,2013-07-06 22:34:00,
2013-07-06 18:39:00,74.2,66.9,22.24,SE,132,7.0,10.0,78,0.00,,---,0.00,VWS V14.00,2013-07-06 22:39:00,
2013-07-06 18:45:00,74.1,67.2,22.24,SE,141,6.0,10.0,79,0.00,,---,0.00,VWS V14.00,2013-07-06 22:45:00,
2013-07-06 18:50:00,74.2,67.6,22.24,SSE,149,6.0,11.0,80,0.00,,---,0.00,VWS V14.00,2013-07-06 22:50:00,
2013-07-06 18:55:00,74.1,67.2,22.24,SE,144,9.0,11.0,79,0.00,,---,0.00,VWS V14.00,2013-07-06 22:55:00,
2013-07-06 19:01:00,74.2,67.3,22.24,SE,142,9.0,12.0,79,0.00,,---,0.00,VWS V14.00,2013-07-06 23:01:00,
2013-07-06 19:06:00,74.2,67.6,22.24,SSE,149,8.0,12.0,80,0.00,,---,0.00,VWS V14.00,2013-07-06 23:06:00,
2013-07-06 19:12:00,74.3,67.4,27.58,SSE,153,8.0,10.0,79,0.00,,---,0.00,VWS V14.00,2013-07-06 23:12:00,
2013-07-06 19:19:00,74.4,67.5,27.58,SE,145,7.0,11.0,79,0.00,,---,0.00,VWS V14.00,2013-07-06 23:19:00,
2013-07-06 19:24:00,74.4,67.1,27.58,SSE,149,6.0,12.0,78,0.00,,---,0.00,VWS V14.00,2013-07-06 23:24:00,
2013-07-06 19:31:00,74.6,67.7,27.58,SSE,147,7.0,12.0,79,0.00,,---,0.00,VWS V14.00,2013-07-06 23:31:00,
2013-07-06 19:36:00,74.7,67.8,27.58,SE,142,9.0,12.0,79,0.00,,---,0.00,VWS V14.00,2013-07-06 23:36:00,
2013-07-06 19:41:00,74.7,67.8,27.58,SE,134,12.0,13.0,79,0.00,,---,0.00,VWS V14.00,2013-07-06 23:41:00,
2013-07-06 19:46:00,74.6,67.7,27.58,SE,142,12.0,13.0,79,0.00,,---,0.00,VWS V14.00,2013-07-06 23:46:00,
2013-07-06 19:51:00,74.6,67.7,27.58,SSE,149,7.0,13.0,79,0.00,,---,0.00,VWS V14.00,2013-07-06 23:51:00,
2013-07-06 19:57:00,74.5,67.6,27.58,SSE,152,6.0,13.0,79,0.00,,---,0.00,VWS V14.00,2013-07-06 23:57:00,
2013-07-06 20:02:00,74.6,67.7,27.58,South,182,2.0,13.0,79,0.00,,---,0.00,VWS V14.00,2013-07-07 00:02:00,
2013-07-06 20:07:00,74.7,68.1,27.58,South,169,4.0,5.0,80,0.00,,---,0.00,VWS V14.00,2013-07-07 00:07:00,
2013-07-06 20:13:00,74.7,67.8,27.58,SE,142,8.0,11.0,79,0.00,,---,0.00,VWS V14.00,2013-07-07 00:13:00,
2013-07-06 20:19:00,74.6,67.7,27.58,SE,132,6.0,11.0,79,0.00,,---,0.00,VWS V14.00,2013-07-07 00:19:00,
2013-07-06 20:25:00,74.5,67.9,27.58,SSE,151,7.0,11.0,80,0.00,,---,0.00,VWS V14.00,2013-07-07 00:25:00,
2013-07-06 20:31:00,74.4,67.8,27.58,SSE,149,6.0,11.0,80,0.00,,---,0.00,VWS V14.00,2013-07-07 00:31:00,
2013-07-06 20:36:00,74.4,67.8,27.58,SE,136,7.0,11.0,80,0.00,,---,0.00,VWS V14.00,2013-07-07 00:36:00,
2013-07-06 20:43:00,74.3,67.7,27.58,SSE,156,6.0,10.0,80,0.00,,---,0.00,VWS V14.00,2013-07-07 00:43:00,
2013-07-06 20:50:00,74.3,68.1,27.58,SE,139,4.0,10.0,81,0.00,,---,0.00,VWS V14.00,2013-07-07 00:50:00,
2013-07-06 20:55:00,74.2,67.6,27.58,SE,129,6.0,10.0,80,0.00,,---,0.00,VWS V14.00,2013-07-07 00:55:00,
2013-07-06 21:00:00,74.1,67.5,27.58,ESE,118,6.0,10.0,80,0.00,,---,0.00,VWS V14.00,2013-07-07 01:00:00,
2013-07-06 21:05:00,73.8,67.2,27.58,ESE,115,7.0,10.0,80,0.00,,---,0.00,VWS V14.00,2013-07-07 01:05:00,
2013-07-06 21:11:00,73.7,67.2,27.58,ESE,120,7.0,10.0,80,0.00,,---,0.00,VWS V14.00,2013-07-07 01:11:00,
2013-07-06 21:16:00,73.5,67.7,27.58,ESE,115,4.0,10.0,82,0.00,,---,0.00,VWS V14.00,2013-07-07 01:16:00,
2013-07-06 21:21:00,73.3,67.5,27.58,ESE,121,6.0,10.0,82,0.00,,---,0.00,VWS V14.00,2013-07-07 01:21:00,
2013-07-06 21:27:00,73.1,67.6,27.58,SE,130,9.0,11.0,83,0.00,,---,0.00,VWS V14.00,2013-07-07 01:27:00,
2013-07-06 21:32:00,72.9,67.4,27.58,SSE,160,5.0,11.0,83,0.00,,---,0.00,VWS V14.00,2013-07-07 01:32:00,
2013-07-06 21:37:00,72.8,67.3,27.58,SSE,149,4.0,5.0,83,0.00,,---,0.00,VWS V14.00,2013-07-07 01:37:00,
2013-07-06 21:42:00,72.6,67.2,27.58,SSE,159,4.0,9.0,83,0.00,,---,0.00,VWS V14.00,2013-07-07 01:42:00,
2013-07-06 21:48:00,72.5,67.4,27.58,SSE,158,5.0,9.0,84,0.00,,---,0.00,VWS V14.00,2013-07-07 01:48:00,
2013-07-06 21:53:00,72.4,67.3,27.58,SE,144,10.0,11.0,84,0.00,,---,0.00,VWS V14.00,2013-07-07 01:53:00,
2013-07-06 21:59:00,72.3,67.5,27.58,South,173,6.0,13.0,85,0.00,,---,0.00,VWS V14.00,2013-07-07 01:59:00,
2013-07-06 22:04:00,72.1,67.0,27.58,SSE,165,7.0,13.0,84,0.00,,---,0.00,VWS V14.00,2013-07-07 02:04:00,
2013-07-06 22:10:00,72.1,67.3,30.81,SE,145,11.0,14.0,85,0.00,,---,0.00,VWS V14.00,2013-07-07 02:10:00,
2013-07-06 22:16:00,72.0,66.9,30.81,SSE,155,11.0,14.0,84,0.00,,---,0.00,VWS V14.00,2013-07-07 02:16:00,
2013-07-06 22:21:00,72.0,67.2,30.81,SSE,159,10.0,14.0,85,0.00,,---,0.00,VWS V14.00,2013-07-07 02:21:00,
2013-07-06 22:26:00,71.8,66.7,30.81,SSE,155,9.0,14.0,84,0.00,,---,0.00,VWS V14.00,2013-07-07 02:26:00,
2013-07-06 22:31:00,71.7,66.6,30.81,SSE,153,6.0,14.0,84,0.00,,---,0.00,VWS V14.00,2013-07-07 02:31:00,
2013-07-06 22:37:00,71.6,66.9,30.81,South,173,6.0,14.0,85,0.00,,---,0.00,VWS V14.00,2013-07-07 02:37:00,
2013-07-06 22:42:00,71.4,66.3,30.81,SW,219,0.0,8.0,84,0.00,,---,0.00,VWS V14.00,2013-07-07 02:42:00,
2013-07-06 22:47:00,71.2,66.1,30.81,SSW,210,2.0,8.0,84,0.00,,---,0.00,VWS V14.00,2013-07-07 02:47:00,
2013-07-06 22:53:00,71.0,66.3,30.81,South,184,5.0,10.0,85,0.00,,---,0.00,VWS V14.00,2013-07-07 02:53:00,
2013-07-06 22:58:00,71.1,66.0,30.81,South,181,5.0,10.0,84,0.00,,---,0.00,VWS V14.00,2013-07-07 02:58:00,
2013-07-06 23:03:00,71.2,66.5,30.81,South,176,4.0,10.0,85,0.00,,---,0.00,VWS V14.00,2013-07-07 03:03:00,
2013-07-06 23:08:00,71.0,65.9,30.81,SSE,168,4.0,5.0,84,0.00,,---,0.00,VWS V14.00,2013-07-07 03:08:00,
2013-07-06 23:14:00,70.8,66.1,30.81,South,180,2.0,6.0,85,0.00,,---,0.00,VWS V14.00,2013-07-07 03:14:00,
2013-07-06 23:20:00,70.6,65.5,30.81,South,189,4.0,6.0,84,0.00,,---,0.00,VWS V14.00,2013-07-07 03:20:00,
2013-07-06 23:25:00,70.4,65.7,30.37,South,191,0.0,6.0,85,0.00,,---,0.00,VWS V14.00,2013-07-07 03:25:00,
2013-07-06 23:31:00,70.3,65.6,30.37,South,191,0.0,6.0,85,0.00,,---,0.00,VWS V14.00,2013-07-07 03:31:00,
2013-07-06 23:36:00,70.0,65.3,30.37,South,191,2.0,6.0,85,0.00,,---,0.00,VWS V14.00,2013-07-07 03:36:00,
2013-07-06 23:42:00,69.8,65.4,30.37,South,191,0.0,3.0,86,0.00,,---,0.00,VWS V14.00,2013-07-07 03:42:00,
2013-07-06 23:47:00,69.6,65.2,30.37,South,191,0.0,3.0,86,0.00,,---,0.00,VWS V14.00,2013-07-07 03:47:00,
2013-07-06 23:52:00,69.4,65.0,30.37,South,191,0.0,3.0,86,0.00,,---,0.00,VWS V14.00,2013-07-07 03:52:00,
2013-07-06 23:57:00,69.0,65.0,30.37,South,191,0.0,3.0,87,0.00,,---,0.00,VWS V14.00,2013-07-07 03:57:00,